PY2SDN-13 Weather Reports


Display with metric or nautical units.
time (UTC)temp
F
wind
direction
speed
MPH
gust
MPH
rain 1hr
in
rain 24hr
in
rain mn
in
humidity
%
barometer
mb
20260509211503 75 149 1.0 3.0 0.00 0.11 0.00 26 1018.5
20260509210003 75 135 0.0 4.0 0.00 0.11 0.00 26 1018.3
20260509204503 75 156 1.0 3.0 0.00 0.11 0.00 26 1018.2
20260509203003 75 146 0.0 3.0 0.00 0.11 0.00 26 1017.8
20260509201503 76 131 0.0 2.0 0.00 0.11 0.00 26 1017.5
20260509200003 76 155 1.0 3.0 0.00 0.11 0.00 26 1017.4
20260509194504 76 137 1.0 4.0 0.00 0.11 0.00 26 1017.2
20260509193003 76 88 1.0 4.0 0.00 0.11 0.00 26 1017.0
20260509191503 76 162 1.0 4.0 0.00 0.11 0.00 26 1016.9
20260509190003 77 158 1.0 4.0 0.00 0.11 0.00 26 1017.0
20260509184503 78 141 0.0 3.0 0.00 0.11 0.00 26 1016.7
20260509183003 78 124 1.0 4.0 0.00 0.11 0.00 26 1017.0
20260509181503 79 135 1.0 3.0 0.00 0.11 0.00 26 1017.0
20260509180003 79 143 1.0 2.0 0.00 0.11 0.00 26 1016.9
20260509174503 78 139 1.0 3.0 0.00 0.11 0.00 26 1016.8
20260509173003 78 139 1.0 4.0 0.00 0.11 0.00 26 1017.1
20260509171504 79 125 2.0 4.0 0.00 0.11 0.00 26 1017.0
20260509170004 78 108 2.0 4.0 0.00 0.11 0.00 26 1017.3
20260509164509 79 141 1.0 5.0 0.00 0.11 0.00 26 1017.3
20260509163004 80 158 1.0 4.0 0.00 0.11 0.00 26 1017.5
20260509161504 82 188 2.0 4.0 0.00 0.11 0.00 26 1017.6
20260509160004 84 146 2.0 5.0 0.00 0.11 0.00 26 1017.6
20260509154504 82 120 2.0 5.0 0.00 0.11 0.00 26 1017.7
20260509153004 81 166 1.0 4.0 0.00 0.11 0.00 26 1018.0
20260509151504 79 155 2.0 5.0 0.00 0.11 0.00 26 1018.0
20260509150004 78 133 1.0 3.0 0.00 0.11 0.00 26 1018.1
20260509144504 78 125 0.0 3.0 0.00 0.11 0.00 26 1018.0
20260509143004 80 128 2.0 4.0 0.00 0.11 0.00 26 1017.9
20260509141504 80 135 0.0 2.0 0.00 0.11 0.00 26 1017.9
20260509140005 80 184 0.0 2.0 0.00 0.11 0.00 26 1017.9
20260509134504 80 146 2.0 4.0 0.00 0.11 0.00 26 1018.2
20260509133004 80 246 0.0 2.0 0.00 0.11 0.00 26 1018.3
20260509131504 80 315 0.0 2.0 0.00 0.11 0.00 26 1018.2
20260509130004 78 359 0.0 3.0 0.00 0.11 0.00 26 1018.0
20260509124504 78 18 0.0 2.0 0.00 0.11 0.00 26 1017.9
20260509123004 78 75 0.0 3.0 0.00 0.11 0.00 26 1017.9
20260509121504 78 135 0.0 2.0 0.00 0.11 0.00 26 1017.9
20260509120004 79 147 0.0 2.0 0.00 0.11 0.00 26 1017.7
20260509114504 77 153 0.0 3.0 0.00 0.11 0.00 26 1017.6
20260509113004 77 130 0.0 2.0 0.00 0.11 0.00 26 1017.4
20260509111509 76 135 0.0 2.0 0.00 0.11 0.00 26 1017.1
20260509110004 75 219 1.0 3.0 0.00 0.11 0.00 26 1016.8
20260509104504 75 146 1.0 3.0 0.00 0.11 0.00 26 1016.6
20260509103004 74 149 1.0 4.0 0.00 0.11 0.00 26 1016.5
20260509101503 74 121 0.0 4.0 0.00 0.11 0.00 26 1015.7
20260509100005 74 191 1.0 3.0 0.00 0.11 0.00 26 1015.3
20260509094503 74 135 0.0 2.0 0.00 0.11 0.00 26 1014.9
20260509093004 74 225 0.0 2.0 0.00 0.11 0.00 26 1014.8
20260509091503 74 142 0.0 3.0 0.00 0.11 0.00 26 1014.5
20260509090003 74 112 0.0 2.0 0.00 0.11 0.00 26 1014.5
20260509084503 74 90 0.0 2.0 0.00 0.11 0.00 26 1014.3
20260509083003 74 134 0.0 4.0 0.00 0.11 0.00 26 1014.2
20260509081503 75 134 1.0 4.0 0.00 0.11 0.00 26 1014.4
20260509080003 75 131 0.0 2.0 0.00 0.11 0.00 26 1014.4
20260509074503 75 142 0.0 3.0 0.00 0.11 0.00 26 1014.3
20260509073003 75 133 2.0 4.0 0.00 0.11 0.00 26 1013.9
20260509071503 75 100 2.0 7.0 0.00 0.11 0.00 26 1014.0
20260509070003 75 125 2.0 4.0 0.00 0.11 0.00 26 1014.0
20260509064503 76 185 0.0 8.0 0.00 0.11 0.00 26 1013.9
20260509063003 75 134 2.0 4.0 0.00 0.11 0.00 26 1013.5
20260509061504 75 315 0.0 1.0 0.00 0.11 0.00 26 1013.3
20260509060004 76 319 0.0 2.0 0.00 0.11 0.00 26 1013.1
20260509054504 76 135 0.0 2.0 0.00 0.11 0.00 26 1013.4
20260509053004 76 128 1.0 3.0 0.00 0.11 0.00 26 1013.3
20260509051504 76 111 0.0 3.0 0.00 0.11 0.00 26 1013.4
20260509050004 76 130 0.0 5.0 0.00 0.11 0.00 26 1013.5
20260509044504 76 144 0.0 3.0 0.00 0.11 0.00 26 1013.5
20260509043004 76 123 1.0 4.0 0.00 0.11 0.00 26 1013.4
20260509041504 76 112 1.0 6.0 0.00 0.11 0.00 26 1013.6
20260509040009 76 156 1.0 4.0 0.00 0.11 0.00 26 1013.6
20260509034504 77 149 2.0 4.0 0.00 0.11 0.00 26 1013.5
20260509033004 77 135 1.0 4.0 0.00 0.11 0.00 26 1013.4
20260509031504 77 135 0.0 1.0 0.00 0.11 0.00 26 1013.4
20260509030004 77 135 0.0 1.0 0.00 0.11 0.00 26 1013.4
20260509024503 78 135 0.0 2.0 0.00 0.11 0.11 26 1013.4
20260509023004 78 135 0.0 1.0 0.00 0.11 0.11 26 1013.2
20260509021503 78 135 0.0 2.0 0.00 0.11 0.11 26 1013.3
20260509020004 78 348 0.0 2.0 0.00 0.11 0.11 26 1013.1
20260509014503 78 360 0.0 1.0 0.00 0.11 0.11 26 1013.3
20260509013003 78 360 0.0 1.0 0.00 0.11 0.11 26 1013.3
20260509011503 78 360 0.0 2.0 0.00 0.11 0.11 26 1013.5
20260509010004 78 0 0.0 0.0 0.00 0.11 0.11 26 1013.6
20260509004503 78 0 0.0 0.0 0.00 0.11 0.11 26 1013.4
20260509003003 78 360 0.0 1.0 0.00 0.11 0.11 26 1013.4
20260509001503 78 360 0.0 2.0 0.00 0.11 0.11 26 1013.3
20260509000008 77 360 0.0 1.0 0.00 0.11 0.11 26 1013.4
20260508234503 78 0 0.0 0.0 0.00 0.11 0.11 26 1013.2
20260508233003 78 360 0.0 2.0 0.01 0.11 0.11 26 1013.4
20260508231508 78 355 1.0 4.0 0.01 0.11 0.11 26 1013.4
20260508230003 78 360 0.0 3.0 0.01 0.11 0.11 26 1013.5
20260508224503 78 341 1.0 2.0 0.11 0.11 0.11 26 1013.6
20260508223003 78 297 0.0 2.0 0.09 0.09 0.09 26 1013.6
20260508221503 77 156 0.0 2.0 0.09 0.09 0.09 26 1013.3
20260508220003 79 225 1.0 4.0 0.09 0.09 0.09 26 1013.4
20260508214503 82 358 0.0 2.0 0.00 0.00 0.00 26 1013.9
20260508213003 82 110 0.0 1.0 0.00 0.00 0.00 26 1013.0